weather.gov     
National Weather Service

Regional Weather Roundup
NWS Homepage
This page is being discontinued on March 12, 2014.
The same data is available at this site. Please update your bookmarks.
Thank you, and we apologize for the inconvenience.
Please send an email to SR-SRH.Webmaster@noaa.gov with any concerns.


Current Version
Previous Version:    01  02  03  04  05  06  07  08  09  10  11  12  13  14  15  16  17  18  19  20  21  22  23  24  25  26  27  28  29  30  
   31  32  33  34  35  36  37  38  39  40  41  42  43  44  45  46  47  48  49  50  51  52  53  54  
[Printable]
834
ASUS44 KMEG 011410
RWRTN
TENNESSEE HOURLY STATE WEATHER ROUNDUP
NATIONAL WEATHER SERVICE MEMPHIS TN
900 AM CDT MON SEP 01 2014

TNZ002-004-019-021-049-052-054-088>092-011500-
WEST TENNESSEE

CITY           SKY/WX    TMP DP  RH WIND       PRES   REMARKS
MEMPHIS INTL   CLOUDY    81  73  78 SW9       30.06F
NWS MEMPHIS      N/A     80 N/A N/A MISG        N/A
JACKSON        CLOUDY    79  74  84 SW13      30.07R
DYERSBURG      PTSUNNY   79  66  65 SW8       30.05F
UNION CITY     MOSUNNY   77  73  88 SW9       30.03S
PARIS          PTSUNNY   75  72  88 SW7       30.06S
HUNTINGDON     MOSUNNY   78  73  84 SW9       30.06S
LEXINGTON      SUNNY     79  73  83 SW9       30.07R
SAVANNAH       SUNNY     81  79  94 SW13      30.09R
$$

TNZ008-025-027-028-033-062-065-066-011500-
NORTH MIDDLE TENNESSEE

CITY           SKY/WX    TMP DP  RH WIND       PRES   REMARKS
NASHVILLE      PTSUNNY   80  72  76 S8        30.09R
DICKSON        SUNNY     79  73  83 SW12      30.08R
CLARKSVILLE    PTSUNNY   78  74  87 SW9       30.06R
LEBANON        SUNNY     80  71  74 SW7       30.08
SMYRNA         MOSUNNY   80  73  79 VRB5      30.10R
MURFREESBORO   SUNNY     81  70  69 SW8       30.09R
COOKEVILLE     MOSUNNY   81  72  74 S3        30.12R
GALLATIN       SUNNY     80  77  91 SW5       30.10R
CROSSVILLE     SUNNY     78  68  71 VRB3      30.17F
$$

TNZ061-075-076-078-094-096-097-011500-
SOUTH MIDDLE TENNESSEE

CITY           SKY/WX    TMP DP  RH WIND       PRES   REMARKS
LEWISBURG      SUNNY     82  71  69 SW7       30.10R
FAYETTEVILLE   SUNNY     79  70  73 S7        30.12S
TULLAHOMA      SUNNY     79  72  78 SW7       30.13S
WINCHESTER     SUNNY     81  73  78 SW6       30.12S
MCMINNVILLE    SUNNY     82  75  78 SW5       30.12S
COLUMBIA         N/A     81  75  83 SW9       30.09R
SHELBYVILLE    SUNNY     81  73  78 S7        30.11S
$$

TNZ017-018-042-046-047-011500-
NORTHEAST TENNESSEE

CITY           SKY/WX    TMP DP  RH WIND       PRES   REMARKS
TRI CITIES     MOSUNNY   77  69  76 CALM      30.17R
ELIZABETHTON   MOSUNNY   75  68  78 CALM      30.17F
$$

TNZ012-013-036-069-073-074-011500-
CENTRAL EAST TENNESSEE

CITY           SKY/WX    TMP DP  RH WIND       PRES   REMARKS
KNOXVILLE      PTSUNNY   77  71  82 CALM      30.13R
OAK RIDGE      SUNNY     77  71  82 S3        30.14S
GATLINBURG     PTSUNNY   73  70  88 CALM      30.13F
MORRISTOWN     SUNNY     77  72  83 CALM      30.16S
$$

TNZ083-085-099-011500-
SOUTHEAST TENNESSEE

CITY           SKY/WX    TMP DP  RH WIND       PRES   REMARKS
CHATTANOOGA    MOSUNNY   79  71  76 CALM      30.13S
$$

SKY/WX REPORTED AS FAIR MEANS FEW OR NO CLOUDS BELOW
12 THOUSAND FEET.





U.S. Dept. of Commerce
NOAA National Weather Service
1325 East West Highway
Silver Spring, MD 20910
E-mail: w-nws.webmaster@noaa.gov
Page last modified: May 16, 2007
NATIONAL WEATHER SERVICE: for Safety, for Work, for Fun - FOR LIFE